Tracking 25711 objects as of 22-May-2022
HD Live streaming from Space Station
objects crossing your sky now

FLOCK 4X 33

Track FLOCK 4X 33 now!
10-day predictions


NORAD ID: 51055
Int'l Code: 2022-002BZ
Perigee: 523.7 km
Apogee: 537.8 km
Inclination: 97.5 °
Period: 95.1 minutes
Semi major axis: 6901 km
RCS: Unknown
Launch date: January 13, 2022
Source: United States (US)
Launch site: AIR FORCE EASTERN TEST RANGE (AFETR)
aabbcc
Your satellite tracking list
Your tracking list is empty




NASA's NSSDC Master Catalog

Two Line Element Set (TLE):
1 51055U 22002BZ  22142.46251156  .00016120  00000-0  88609-3 0  9997
2 51055  97.4890 209.9692 0010190 158.1311 202.0358 15.14124670 19486
Source of the keplerian elements: AFSPC